[[{"header":{"parameterUnit":"m.s-1","parameterCategory":1,"la1":30.2991,"la2":30.254,"lo1":-89.0895,"lo2":-89.0444,"dy":0.0017,"dx":0.0017,"nx":28,"ny":28,"refTime":"2025-01-02T03:00:00:Z","depth":0,"parameterNumber":2,"parameterNumberName":"U-component_of_WINDS"},"data":[0,0,0,0,0,0,0,0,0,0,0,0,0,0,0,0,0,0,0,0,0,0,0,0,0,0,0,0,0,0,0,0,0,0,0,0,0,0,0,0,0,0,0,0,0,0,0,0,0,0,0,0,0,0,0,0,0,0,-3.5107,-3.5107,0,-3.5148,-3.5148,-3.5149,-3.4998,-3.4993,-3.4989,-3.4985,-3.503,-3.5035,-3.5041,0,0,0,0,0,0,0,0,0,0,0,0,0,-3.4899,-3.4904,-3.5107,-3.5107,-3.5108,-3.5148,-3.5148,-3.5149,-3.4999,-3.4993,-3.4988,-3.4983,-3.5028,-3.5035,-3.5041,0,0,0,0,0,0,0,0,0,0,0,0,0,-3.497,-3.4905,-3.5107,-3.5038,-3.5032,-3.5148,-3.5148,-3.5149,-3.5,-3.4993,-3.4986,-3.498,-3.5026,-3.5034,-3.5042,-3.5227,0,0,-3.5067,-3.507,0,0,0,0,0,0,0,0,-3.4966,-3.4978,-3.5047,-3.5043,-3.5036,-3.5061,-3.5091,-3.5175,-3.5002,-3.5012,-3.4985,-3.4977,-3.5046,-3.5052,-3.5075,-3.5229,-3.5231,-3.5067,-3.5072,-3.5076,-3.5078,0,0,0,0,0,0,0,-3.4961,-3.4975,-3.5123,-3.5048,-3.5042,-3.5005,-3.5007,-3.5107,-3.5067,-3.5011,-3.5,-3.5007,-3.5042,-3.5067,-3.5074,-3.5232,-3.5067,-3.5074,-3.5079,-3.5083,-3.5539,-3.5545,0,0,0,0,0,0,-3.4965,-3.4972,-3.5122,-3.5124,-3.4984,-3.5014,-3.5017,-3.506,-3.5065,-3.5059,-3.5012,-3.4999,-3.5057,-3.5065,-3.5076,-3.5292,-3.5076,-3.5083,-3.5088,-3.5531,-3.554,-3.5548,0,0,0,0,0,0,-3.4961,-3.498,-3.512,-3.5045,-3.506,-3.5025,-3.5074,-3.5064,-3.5089,-3.5066,-3.5058,-3.5046,-3.5052,-3.5064,-3.519,-3.5292,-3.5087,-3.5094,-3.5523,-3.5534,-3.5544,-3.5728,0,0,0,0,0,0,-3.4956,-3.498,-3.505,-3.5048,-3.5065,-3.5234,-3.508,-3.507,-3.5103,-3.5087,-3.5096,-3.509,-3.5047,-3.5179,-3.5198,-3.5299,-3.5101,-3.5514,-3.5528,-3.5541,-3.5712,-3.5743,-3.577,0,0,0,0,0,-3.4949,-3.5101,-3.5054,-3.5073,-3.5151,-3.524,-3.525,-3.5196,-3.5112,-3.5182,-3.5167,-3.509,-3.5277,-3.5193,-3.5213,-3.5318,-3.5507,-3.5524,-3.554,-3.5699,-3.5737,-3.5769,0,0,0,0,0,0,-3.5117,-3.5099,-3.5047,-3.5203,-3.5224,-3.5215,-3.5302,-3.5238,-3.5285,-3.5268,-3.52,-3.5203,-3.5341,-3.5342,-3.5248,-3.5497,-3.5377,-3.5399,-3.5492,-3.5528,-3.5556,-3.5554,-3.5107,0,0,0,0,0,-3.5172,-3.5245,-3.5225,-3.5365,-3.5378,-3.5338,-3.5375,-3.5331,-3.5351,-3.536,-3.5354,-3.5377,-3.544,-3.5483,-3.554,-3.5711,-3.571,-3.5793,-3.5822,-3.5845,-3.5865,-3.5954,-3.5991,-3.5602,-3.5601,-3.5601,0,0,-3.5287,-3.5286,-3.5337,-3.5398,-3.541,-3.5487,-3.5347,-3.5435,-3.5492,-3.5373,-3.5492,-3.5488,-3.5509,-3.5657,-3.5722,-3.5662,-3.5972,-3.5866,-3.5885,-3.5892,-3.5975,-3.6012,-3.6044,-3.5613,-3.5611,-3.5609,0,0,-3.5536,-3.5542,-3.5658,-3.5672,-3.569,-3.5662,-3.569,-3.569,-3.5683,-3.58,-3.5712,-3.5778,-3.5889,-3.5907,-3.5931,-3.6184,-3.6115,-3.6204,-3.6356,-3.6443,-3.6474,-3.6501,-3.6591,-3.6624,-3.6223,-3.6224,-3.6224,0,-3.5677,-3.5789,-3.5726,-3.582,-3.585,-3.5743,-3.586,-3.5877,-3.5914,-3.5937,-3.5868,-3.6003,-3.601,-3.6161,-3.6222,-3.6245,-3.6275,-3.6204,-3.6474,-3.6501,-3.6525,-3.661,-3.6644,-3.6235,-3.6233,-3.6232,-3.6231,0,-3.5962,-3.6041,-3.6132,-3.6169,-3.6208,-3.6314,-3.6266,-3.6314,-3.6266,-3.6246,-3.6366,-3.6369,-3.6425,-3.6456,-3.6412,-3.6601,-3.6563,-3.6486,-3.6365,-3.6574,-3.6653,-3.6685,-3.625,-3.6246,-3.6243,-3.624,0,0,-3.6321,-3.6318,-3.6353,-3.6368,-3.6379,-3.6439,-3.6539,-3.6591,-3.6634,-3.6662,-3.6744,-3.6839,-3.6766,-3.6793,-3.6749,-3.6826,-3.7025,-3.6738,-3.6738,-3.6792,-3.7234,-3.7293,-3.7332,-3.6978,-3.6984,-3.6989,-3.7232,0,-3.6565,-3.6735,-3.668,-3.6852,-3.6924,-3.6823,-3.6909,-3.6926,-3.6909,-3.6967,-3.6948,-3.7017,-3.6916,-3.6931,-3.7002,-3.6986,-3.7113,-3.6967,-3.7055,-3.7059,-3.7055,-3.7373,-3.7437,-3.7666,-3.7263,-3.7268,-3.7272,0,-3.6875,-3.6913,-3.7093,-3.7089,-3.7117,-3.7197,-3.7239,-3.7297,-3.7312,-3.7294,-3.7323,-3.7262,-3.7359,-3.7236,-3.7369,-3.7271,-3.7303,-3.73,-3.7308,-3.7315,-3.7179,-3.7391,-3.7738,-3.7773,-3.732,-3.7316,-3.7313,0,-3.7119,-3.7216,-3.7335,-3.7351,-3.735,-3.7408,-3.741,-3.7419,-3.7454,-3.7491,-3.7513,-3.7562,-3.7589,-3.7628,-3.7581,-3.7496,-3.7721,-3.7595,-3.7709,-3.7711,-3.7763,-3.7761,-3.8122,-3.7782,-3.7782,-3.7781,-3.778,0,-3.7399,-3.7513,-3.7445,-3.7519,-3.7643,-3.7577,-3.7702,-3.7693,-3.7701,-3.7771,-3.7686,-3.7754,-3.7687,-3.7749,-3.7713,-3.7828,-3.7841,-3.7829,-3.7819,-3.7838,-3.784,-3.7859,-3.7842,-3.779,-3.7788,-3.7786,-3.7785,0,-3.7695,-3.7653,-3.7777,-3.7765,-3.7764,-3.7857,-3.7846,-3.7914,-3.7889,-3.7979,-3.7996,-3.7958,-3.8026,-3.7982,-3.8051,-3.8026,-3.8177,-3.8144,-3.8172,-3.8164,-3.8281,-3.8271,-3.8669,-3.8718,-3.8346,-3.835,-3.8353,0,-3.7877,-3.7962,-3.7958,-3.7998,-3.8006,-3.8072,-3.8106,-3.8044,-3.8084,-3.8106,-3.8172,-3.8231,-3.8276,-3.8389,-3.8368,-3.8419,-3.8387,-3.8523,-3.8395,-3.8411,-3.839,-3.8386,-3.8394,-3.855,-3.8554,-3.8558,-3.8561,0,-3.8205,-3.818,-3.8232,-3.8277,-3.832,-3.8352,-3.8378,-3.8416,-3.8353,-3.8402,-3.8469,-3.8504,-3.8572,-3.8633,-3.8676,-3.8678,-3.861,-3.86,-3.863,-3.8651,-3.8664,-3.8659,-3.8244,-3.8592,-3.8589,-3.8587,-3.8585,-3.8584,-3.845,-3.852,-3.8528,-3.8588,-3.86,-3.8626,-3.8688,-3.867,-3.8725,-3.8776,-3.8736,-3.8816,-3.8827,-3.8877,-3.8888,-3.895,-3.8895,-3.8937,-3.8948,-3.896,-3.8977,-3.8653,-3.8957,-3.8956,-3.8955,-3.8954,-3.8954,0,-3.8773,-3.8773,-3.8829,-3.8867,-3.8914,-3.8843,-3.8867,-3.8912,-3.8983,-3.8999,-3.9044,-3.9121,-3.9178,-3.9161,-3.9212,-3.9265,-3.9235,-3.9281,-3.9277,-3.9278,-3.9023,-3.8992,-3.9304,-3.9304,-3.9304,-3.9304,-3.9304,-3.9304,-3.8948,-3.9062,-3.9038,-3.9157,-3.9155,-3.9232,-3.9252,-3.9275,-3.9287,-3.9376,-3.9423,-3.941,-3.9413,-3.9463,-3.9512,-3.9505,-3.9529,-3.9587,-3.9569,-3.9331,-3.9296,-3.9264,-3.9235,-3.9592,-3.9592,-3.9819,-3.9821,-3.9822]},{"header":{"parameterUnit":"m.s-1","parameterCategory":1,"la1":30.2991,"la2":30.254,"lo1":-89.0895,"lo2":-89.0444,"dy":0.0017,"dx":0.0017,"nx":28,"ny":28,"refTime":"2025-01-02T03:00:00:Z","depth":0,"parameterNumber":3,"parameterNumberName":"V-component_of_WINDS"},"data":[0,0,0,0,0,0,0,0,0,0,0,0,0,0,0,0,0,0,0,0,0,0,0,0,0,0,0,0,0,0,0,0,0,0,0,0,0,0,0,0,0,0,0,0,0,0,0,0,0,0,0,0,0,0,0,0,0,0,-4.0076,-4.0077,0,-4.014,-4.0141,-4.0142,-4.0101,-4.0099,-4.0097,-4.0095,-4.0158,-4.0161,-4.0165,0,0,0,0,0,0,0,0,0,0,0,0,0,-3.9914,-3.9917,-4.0076,-4.0077,-4.0078,-4.014,-4.0141,-4.0142,-4.0101,-4.0099,-4.0097,-4.0095,-4.0157,-4.0161,-4.0165,0,0,0,0,0,0,0,0,0,0,0,0,0,-3.9982,-3.9918,-4.0076,-4.0065,-4.0065,-4.014,-4.0141,-4.0142,-4.0102,-4.0099,-4.0096,-4.0094,-4.0155,-4.016,-4.0165,-4.0254,0,0,-4.0181,-4.0183,0,0,0,0,0,0,0,0,-3.9978,-3.9988,-4.0066,-4.0066,-4.0066,-4.011,-4.0106,-4.0179,-4.0103,-4.0088,-4.0095,-4.0092,-4.0144,-4.015,-4.0168,-4.0257,-4.0259,-4.0182,-4.0185,-4.0187,-4.0188,0,0,0,0,0,0,0,-3.9973,-3.9985,-4.0101,-4.0067,-4.0067,-4.0055,-4.0062,-4.012,-4.0131,-4.0089,-4.0086,-4.0094,-4.0143,-4.0163,-4.0169,-4.026,-4.0181,-4.0186,-4.0189,-4.0191,-4.0421,-4.0424,0,0,0,0,0,0,-3.997,-3.9981,-4.0099,-4.0103,-4.0014,-4.0061,-4.0068,-4.0098,-4.013,-4.0132,-4.0097,-4.0092,-4.0156,-4.0163,-4.0171,-4.0274,-4.0187,-4.0192,-4.0195,-4.0418,-4.0422,-4.0425,0,0,0,0,0,0,-3.9967,-3.9981,-4.0097,-4.0041,-4.0055,-4.0066,-4.0101,-4.0101,-4.0121,-4.0136,-4.0137,-4.0115,-4.0154,-4.0164,-4.0233,-4.0276,-4.0194,-4.0199,-4.0415,-4.0419,-4.0424,-4.0483,0,0,0,0,0,0,-3.9962,-3.998,-4.0015,-4.0042,-4.0058,-4.0159,-4.0104,-4.0104,-4.013,-4.0125,-4.0154,-4.0156,-4.0152,-4.0226,-4.0238,-4.0282,-4.0203,-4.0411,-4.0417,-4.0422,-4.0478,-4.0489,-4.0499,0,0,0,0,0,-3.9956,-4.0029,-4.0017,-4.0031,-4.0103,-4.0162,-4.0171,-4.0166,-4.0134,-4.0168,-4.0177,-4.0155,-4.027,-4.0233,-4.0247,-4.0293,-4.0408,-4.0415,-4.0422,-4.0473,-4.0487,-4.0499,0,0,0,0,0,0,-4.0006,-4.0033,-4.0019,-4.0103,-4.0131,-4.0155,-4.0198,-4.0182,-4.0218,-4.0212,-4.0203,-4.021,-4.0282,-4.0294,-4.0253,-4.0378,-4.0334,-4.0344,-4.0367,-4.0381,-4.0392,-4.0387,-4.0207,0,0,0,0,0,-4.0026,-4.0074,-4.0094,-4.0166,-4.0181,-4.0187,-4.0213,-4.0207,-4.0234,-4.0245,-4.026,-4.0286,-4.0328,-4.0355,-4.0395,-4.0479,-4.0483,-4.0517,-4.0528,-4.0537,-4.0545,-4.0588,-4.0603,-4.0448,-4.0448,-4.0448,0,0,-4.007,-4.009,-4.012,-4.0177,-4.0197,-4.0244,-4.0197,-4.025,-4.0284,-4.0253,-4.0319,-4.033,-4.0359,-4.0435,-4.047,-4.0448,-4.0589,-4.0546,-4.0553,-4.0556,-4.0597,-4.0611,-4.0624,-4.0452,-4.0452,-4.0451,0,0,-4.0172,-4.0193,-4.0255,-4.0276,-4.0307,-4.0311,-4.0325,-4.0352,-4.0358,-4.0425,-4.0402,-4.0441,-4.0514,-4.0535,-4.0555,-4.0663,-4.0642,-4.0676,-4.0733,-4.0775,-4.0787,-4.0797,-4.0834,-4.0847,-4.0684,-4.0684,-4.0685,0,-4.0221,-4.0293,-4.0288,-4.0342,-4.0366,-4.034,-4.0401,-4.0421,-4.0464,-4.048,-4.0455,-4.0545,-4.0562,-4.0642,-4.0668,-4.0686,-4.07,-4.0672,-4.0786,-4.0796,-4.0806,-4.0841,-4.0855,-4.0688,-4.0688,-4.0687,-4.0687,0,-4.0351,-4.04,-4.0446,-4.0488,-4.0517,-4.0574,-4.0576,-4.0606,-4.0597,-4.0602,-4.0668,-4.0689,-4.073,-4.0749,-4.0741,-4.0827,-4.0812,-4.0787,-4.0742,-4.0825,-4.0857,-4.087,-4.0693,-4.0692,-4.0691,-4.069,0,0,-4.0486,-4.0524,-4.054,-4.0558,-4.059,-4.0627,-4.0682,-4.0724,-4.0748,-4.0778,-4.0822,-4.0883,-4.0859,-4.0882,-4.0876,-4.0913,-4.0994,-4.0882,-4.0883,-4.0901,-4.1087,-4.1105,-4.112,-4.0981,-4.0984,-4.0986,-4.1084,0,-4.0589,-4.0685,-4.0681,-4.0771,-4.0815,-4.0791,-4.0838,-4.0861,-4.0868,-4.0905,-4.0911,-4.0954,-4.092,-4.0933,-4.0969,-4.0977,-4.1031,-4.097,-4.102,-4.1022,-4.1012,-4.1137,-4.1157,-4.1249,-4.1097,-4.1099,-4.11,0,-4.0722,-4.0756,-4.085,-4.0873,-4.0892,-4.0934,-4.0971,-4.1007,-4.1033,-4.1034,-4.1059,-4.1046,-4.1099,-4.1053,-4.1125,-4.1083,-4.1103,-4.111,-4.1113,-4.1116,-4.1065,-4.1142,-4.1278,-4.1291,-4.1121,-4.1119,-4.1118,0,-4.0808,-4.0878,-4.0942,-4.0959,-4.0988,-4.1018,-4.1031,-4.1054,-4.1079,-4.111,-4.1125,-4.1163,-4.1182,-4.1211,-4.1207,-4.1175,-4.1279,-4.1233,-4.128,-4.128,-4.1302,-4.13,-4.1441,-4.1318,-4.1318,-4.1318,-4.1317,0,-4.0922,-4.098,-4.0981,-4.1021,-4.1084,-4.1078,-4.114,-4.115,-4.117,-4.121,-4.1191,-4.1228,-4.1222,-4.1259,-4.1256,-4.1314,-4.1324,-4.1325,-4.1324,-4.1326,-4.1326,-4.1338,-4.1331,-4.1321,-4.132,-4.132,-4.1319,0,-4.103,-4.1033,-4.1101,-4.1123,-4.113,-4.1175,-4.1193,-4.123,-4.1234,-4.1284,-4.1295,-4.1301,-4.1343,-4.1343,-4.1391,-4.1389,-4.1459,-4.1451,-4.1451,-4.1449,-4.1494,-4.1489,-4.1646,-4.1665,-4.1532,-4.1533,-4.1534,0,-4.1101,-4.1145,-4.1172,-4.1197,-4.1212,-4.1254,-4.1278,-4.1273,-4.13,-4.1331,-4.1363,-4.1403,-4.1435,-4.1502,-4.151,-4.1546,-4.1537,-4.159,-4.1542,-4.1543,-4.1535,-4.1532,-4.1535,-4.1599,-4.16,-4.1601,-4.1602,0,-4.1227,-4.1227,-4.1264,-4.1301,-4.1331,-4.1359,-4.1386,-4.1407,-4.1405,-4.1435,-4.1478,-4.1502,-4.1551,-4.159,-4.1624,-4.1636,-4.1618,-4.1617,-4.1629,-4.1631,-4.1628,-4.1628,-4.1474,-4.1613,-4.1612,-4.1611,-4.1611,-4.161,-4.1318,-4.1354,-4.1378,-4.1419,-4.1438,-4.1463,-4.1498,-4.1506,-4.1542,-4.1581,-4.1576,-4.1623,-4.1645,-4.1689,-4.1704,-4.1739,-4.172,-4.1739,-4.1743,-4.1747,-4.1751,-4.1624,-4.1746,-4.1745,-4.1745,-4.1745,-4.1744,0,-4.1441,-4.1455,-4.1492,-4.153,-4.1561,-4.1543,-4.1571,-4.1598,-4.164,-4.1662,-4.1694,-4.1741,-4.1779,-4.1789,-4.1825,-4.1851,-4.1844,-4.186,-4.1857,-4.186,-4.1767,-4.1752,-4.1866,-4.1866,-4.1866,-4.1866,-4.1866,-4.1866,-4.1508,-4.1569,-4.157,-4.1639,-4.1652,-4.1699,-4.1716,-4.1738,-4.1755,-4.181,-4.1841,-4.1848,-4.1865,-4.1901,-4.1934,-4.1936,-4.1949,-4.1968,-4.1967,-4.1879,-4.1867,-4.1855,-4.1841,-4.1972,-4.1972,-4.2057,-4.2057,-4.2058]}]]